ABS-3A

Last updated on Oct. 26, 2020, 5:52 a.m. UTC

1 40424U 15010A   20299.91179837 -.00000038  00000-0  00000-0 0  9990
2 40424   0.0223 270.0836 0000551 181.2249 268.7566  1.00272382 20745
UTC
Height (km)
Latitude
Longitude
Inclination
Orbital Period
UTC large
Height (km)
Speed (km/s)
/
Latitude / Longitude
Inclination (degrees)
Orbital Period (minutes)
Azimuth
Elevation
Range (km)
Doppler Factor
iOS Compass Heading
iOS Angle

Next 30 passes for location: Hong Kong

Rise time Rise Azimuth (degrees) Set time Set Azimuth (degrees) Duration Max altitude (degrees)

No matching passes for this satellites